Regional Weather Roundup
Issued by NWS

Home | Current Version | Previous Version | Graphics & Text | Print | Product List | Glossary On
Versions: 1 2 3 4 5 6 7 8 9 10 11 12 13 14 15 16 17 18 19 20 21 22 23 24 25 26 27 28 29 30 31 32 33 34 35 36 37 38 39 40 41 42 43 44 45 46 47 48 49 50
000
ASUS43 KTOP 190359
RWRKS

WEATHER ROUNDUP FOR KANSAS
NATIONAL WEATHER SERVICE GOODLAND KS
1000 PM CST SUN FEB 18 2018

NOTE:  "FAIR" INDICATES FEW OR NO CLOUDS BELOW 12,000 FEET WITH NO
SIGNIFICANT WEATHER AND/OR OBSTRUCTIONS TO VISIBILITY.

KSZ001>006-013>018-027>032-041>047-190500-
NORTHWEST KANSAS

CITY           SKY/WX    TMP DP  RH WIND       PRES   REMARKS
GOODLAND       CLOUDY    34  28  79 NE22G31   29.51R WCI  22
HAYS           CLEAR     57  47  69 S22G29    29.46R
HILL CITY      PTCLDY    45  33  63 N21G31    29.46R
RUSSELL        PTCLDY    56  49  77 S25G33    29.47R
$$

KSZ061>065-074>080-084>089-190500-
SOUTHWEST KANSAS

CITY           SKY/WX    TMP DP  RH WIND       PRES   REMARKS
DODGE CITY     PTCLDY    65  36  34 S20G31    29.50R
GARDEN CITY    CLEAR     59  32  36 SW18G30   29.47R
GREAT BEND     CLOUDY    54  48  80 S28G35    29.50R
LIBERAL        CLOUDY    61  38  42 SW23      29.54S
$$

KSZ066>073-081>083-090>101-190500-
SOUTHEAST KANSAS

CITY           SKY/WX    TMP DP  RH WIND       PRES   REMARKS
CHANUTE        CLOUDY    52  50  93 S24G33    29.74S
COFFEYVILLE    CLOUDY    52  51  97 S20G28    29.76F FOG
HUTCHINSON     CLOUDY    54  51  90 S26G39    29.58S
MEDICINE LODGE   N/A     53  50  89 SE14G23   29.60S
NEWTON         CLOUDY    52  50  93 S29G39    29.60F
PARSONS        CLOUDY    52  51  97 S15G22    29.76F
WICHITA INTL   CLOUDY    53  51  93 S22G28    29.65R
WICHITA JABRA  CLOUDY    51  51 100 S17G28    29.64F
WICHITA MCCONL CLOUDY    51  50  96 S18G28    29.65
WINFIELD       CLOUDY    52  52 100 S16G25    29.70F
$$

KSZ007>012-019>026-033>040-048>060-102>105-190500-
NORTHEAST KANSAS

CITY           SKY/WX    TMP DP  RH WIND       PRES   REMARKS
CONCORDIA      CLOUDY    50  46  86 S25G37    29.50S
EMPORIA        CLOUDY    51  48  89 S32G43    29.65F
LAWRENCE       CLOUDY    53  47  79 S13G24    29.68F
MANHATTAN      CLOUDY    55  48  77 S21G33    29.58F
OLATHE IND     CLOUDY    52  47  83 S25G33    29.70F
OLATHE EXE     CLOUDY    51  46  83 S20G33    29.70F
SALINA         PTCLDY    54  49  83 S21G29    29.56R
TOPEKA BILLARD CLOUDY    54  49  83 S12G32    29.64F
TOPEKA FORBES  CLOUDY    53  48  83 S26G38    29.63S
$$




USA.gov is the U.S. government's official web portal to all federal, state and local government web resources and services.